Weather History for Crestview, FL

Change the Weather History Date:

Friday, December 14, 2012

  Actual Average Record
Temperature  
Mean Temperature 44 °F -  
Max Temperature 50 °F - - ()
Min Temperature 39 °F - - ()
Degree Days  
Heating Degree Days 20    
Moisture  
Dew Point 43 °F    
Average Humidity 96    
Maximum Humidity 100    
Minimum Humidity 76    
Precipitation  
Precipitation 0.00 in - - ()
Sea Level Pressure  
Sea Level Pressure 30.27 in    
Wind  
Wind Speed 5 mph (NE)    
Max Wind Speed 9 mph    
Max Gust Speed -    
Visibility 4 miles    
Events Fog    
T = Trace of Precipitation, MM = Missing Value Source: NWS Daily Summary

Daily Weather History Graph

Daily Weather History Graph

Search for Another Location

Airport:

Trip Planner

Search our weather history database for the weather conditions in past years. The results will help you decide how hot, cold, wet, or windy it might be!

Date:

Astronomy

Dec. 14, 2012 Rise Set
Actual Time 6:35 AM CST 4:46 PM CST
Civil Twilight 6:09 AM CST 5:13 PM CST
Nautical Twilight 5:39 AM CST 5:43 PM CST
Astronomical Twilight 5:09 AM CST 6:12 PM CST
Moon 7:43 AM CST 6:34 PM CST
Length of Visible Light 11h 03m
Length of Day
10h 10m
Waxing Crescent, 3% of the Moon is Illuminated
Dec 14
Waxing Crescent
Dec 19
First Quarter
Dec 28
Full
Jan 4
Last Quarter
Jan 11
New

Hourly Weather History & Observations

Time (CST) Temp. Windchill Dew Point Humidity Pressure Visibility Wind Dir Wind Speed Gust Speed Precip Events Conditions
3:17 AM 41.0 °F 39.0 °F 41.0 °F 100% 30.29 in 3.0 mi East 3.5 mph - N/A   Overcast
3:24 AM 41.0 °F 37.1 °F 41.0 °F 100% 30.29 in 2.5 mi ENE 5.8 mph - N/A   Overcast
3:27 AM 41.0 °F 39.0 °F 41.0 °F 100% 30.30 in 2.0 mi ENE 3.5 mph - N/A   Overcast
3:30 AM 41.0 °F 37.1 °F 41.0 °F 100% 30.30 in 1.8 mi ENE 5.8 mph - N/A   Overcast
3:36 AM 41.0 °F 38.0 °F 41.0 °F 100% 30.29 in 1.2 mi ENE 4.6 mph - N/A   Overcast
3:41 AM 41.0 °F 38.0 °F 41.0 °F 100% 30.29 in 1.0 mi ENE 4.6 mph - N/A   Mist
3:45 AM 41.0 °F 37.1 °F 41.0 °F 100% 30.28 in 1.0 mi ENE 5.8 mph - N/A   Mist
3:55 AM 41.5 °F 37.8 °F 41.4 °F 99% 30.28 in 1.0 mi ENE 5.8 mph - N/A   Mist
4:11 AM 41.0 °F 37.1 °F 41.0 °F 100% 30.28 in 1.2 mi ENE 5.8 mph - N/A   Overcast
4:23 AM 41.0 °F 38.0 °F 41.0 °F 100% 30.29 in 1.5 mi ENE 4.6 mph - N/A   Overcast
4:37 AM 41.0 °F 38.0 °F 41.0 °F 100% 30.30 in 1.5 mi Variable 4.6 mph - N/A   Overcast
4:55 AM 41.7 °F 38.0 °F 41.5 °F 99% 30.30 in 1.5 mi ENE 5.8 mph - N/A   Overcast
5:27 AM 42.8 °F 38.6 °F 41.0 °F 93% 30.30 in 2.0 mi ENE 6.9 mph - N/A   Overcast
5:55 AM 42.3 °F 38.6 °F 42.1 °F 99% 30.30 in 2.0 mi ENE 5.8 mph - N/A   Overcast
6:11 AM 42.8 °F 38.0 °F 42.8 °F 100% 30.29 in 1.8 mi ENE 8.1 mph - N/A   Overcast
6:19 AM 42.8 °F 38.0 °F 42.8 °F 100% 30.30 in 2.0 mi ENE 8.1 mph - N/A   Overcast
6:33 AM 42.8 °F 40.1 °F 42.8 °F 100% 30.31 in 1.8 mi ENE 4.6 mph - N/A   Overcast
6:55 AM 43.0 °F 40.3 °F 42.8 °F 99% 30.32 in 1.5 mi NE 4.6 mph - N/A   Overcast
7:03 AM 42.8 °F 41.1 °F 42.8 °F 100% 30.33 in 2.0 mi NE 3.5 mph - N/A   Overcast
7:08 AM 42.8 °F 39.3 °F 42.8 °F 100% 30.32 in 1.8 mi ENE 5.8 mph - N/A   Overcast
7:09 AM 42.8 °F 38.6 °F 42.8 °F 100% 30.32 in 1.8 mi ENE 6.9 mph - N/A   Overcast
7:16 AM 42.8 °F 40.1 °F 42.8 °F 100% 30.32 in 1.8 mi ENE 4.6 mph - N/A   Overcast
7:18 AM 42.8 °F 40.1 °F 42.8 °F 100% 30.32 in 2.0 mi NE 4.6 mph - N/A   Overcast
7:24 AM 42.8 °F 38.6 °F 42.8 °F 100% 30.33 in 2.5 mi NE 6.9 mph - N/A   Overcast
7:27 AM 42.8 °F 39.3 °F 42.8 °F 100% 30.32 in 3.0 mi NE 5.8 mph - N/A   Overcast
7:43 AM 42.8 °F 39.3 °F 42.8 °F 100% 30.33 in 4.0 mi ENE 5.8 mph - N/A   Overcast
7:55 AM 43.7 °F 40.3 °F 43.5 °F 99% 30.33 in 4.0 mi NE 5.8 mph - 0.00 in   Overcast
8:05 AM 44.6 °F 41.4 °F 44.6 °F 100% 30.34 in 3.0 mi East 5.8 mph - N/A   Overcast
8:11 AM 44.6 °F 41.4 °F 44.6 °F 100% 30.34 in 4.0 mi NE 5.8 mph - N/A   Overcast
8:21 AM 44.6 °F 41.4 °F 44.6 °F 100% 30.34 in 3.0 mi ENE 5.8 mph - N/A   Overcast
8:23 AM 44.6 °F 42.2 °F 44.6 °F 100% 30.34 in 2.5 mi ENE 4.6 mph - N/A   Overcast
8:24 AM 44.6 °F 42.2 °F 44.6 °F 100% 30.34 in 3.0 mi ENE 4.6 mph - N/A   Overcast
8:32 AM 44.6 °F 39.7 °F 44.6 °F 100% 30.34 in 4.0 mi NE 9.2 mph - N/A   Overcast
8:55 AM 44.4 °F 41.2 °F 44.2 °F 99% 30.36 in 2.0 mi NE 5.8 mph - N/A   Overcast
9:23 AM 44.6 °F 40.2 °F 44.6 °F 100% 30.33 in 2.0 mi ENE 8.1 mph - N/A   Overcast
9:55 AM 45.5 °F 43.2 °F 44.4 °F 96% 30.36 in 2.0 mi NE 4.6 mph - N/A   Overcast
10:55 AM 46.4 °F 43.5 °F 44.8 °F 94% 30.33 in 3.0 mi NE 5.8 mph - N/A   Overcast
11:55 AM 46.9 °F - 44.8 °F 92% 30.32 in 4.0 mi NNE 4.6 mph - N/A   Overcast
12:18 PM 48.2 °F - 44.6 °F 87% 30.28 in 4.0 mi NNE 5.8 mph - N/A   Overcast
12:42 PM 48.2 °F - 42.8 °F 82% 30.26 in 5.0 mi East 4.6 mph - N/A   Overcast
12:55 PM 48.0 °F - 43.7 °F 85% 30.28 in 5.0 mi NE 2.3 mph - N/A   Overcast
1:24 PM 48.2 °F - 42.8 °F 82% 30.24 in 5.0 mi NNE 5.8 mph - N/A   Overcast
1:55 PM 49.5 °F - 43.5 °F 80% 30.26 in 6.0 mi NNE 4.6 mph - N/A   Overcast
2:23 PM 50.0 °F - 42.8 °F 76% 30.22 in 10.0 mi NE 3.5 mph - N/A   Overcast
2:55 PM 49.6 °F - 43.2 °F 78% 30.26 in 10.0 mi NNW 1.2 mph - N/A   Overcast
3:55 PM 49.3 °F - 43.5 °F 81% 30.25 in 10.0 mi NW 3.5 mph - N/A   Mostly Cloudy
4:55 PM 47.8 °F - 43.7 °F 86% 30.24 in 10.0 mi Calm Calm - N/A   Mostly Cloudy
5:14 PM 46.4 °F - 42.8 °F 87% 30.22 in 10.0 mi WNW 2.3 mph - N/A   Scattered Clouds
5:55 PM 42.8 °F - 41.9 °F 97% 30.22 in 7.0 mi Calm Calm - N/A   Partly Cloudy
6:55 PM 39.7 °F 37.6 °F 39.2 °F 98% 30.22 in 7.0 mi South 3.5 mph - N/A   Clear
7:20 PM 44.6 °F 41.4 °F 42.8 °F 93% 30.23 in 10.0 mi WSW 5.8 mph - N/A   Partly Cloudy
7:48 PM 42.8 °F - 41.0 °F 93% 30.20 in 10.0 mi Variable 1.2 mph - N/A   Mostly Cloudy
7:55 PM 42.4 °F - 41.4 °F 96% 30.22 in 7.0 mi Calm Calm - N/A   Mostly Cloudy
8:19 PM 42.8 °F - 42.8 °F 100% 30.18 in 8.0 mi Calm Calm - N/A   Overcast
8:36 PM 44.6 °F 43.1 °F 42.8 °F 93% 30.17 in 8.0 mi SSE 3.5 mph - N/A   Overcast
8:55 PM 45.1 °F - 45.0 °F 99% 30.19 in 7.0 mi Calm Calm - N/A   Overcast
9:16 PM 46.4 °F - 44.6 °F 93% 30.19 in 4.0 mi Calm Calm - N/A   Overcast
9:34 PM 44.6 °F 43.1 °F 44.6 °F 100% 30.18 in 1.0 mi East 3.5 mph - N/A   Overcast
9:55 PM 44.6 °F 43.1 °F 44.4 °F 99% 30.18 in 1.0 mi East 3.5 mph - N/A   Overcast
10:26 PM 44.6 °F - 44.6 °F 100% 30.16 in 1.5 mi Calm Calm - N/A   Overcast
10:34 PM 44.6 °F - 44.6 °F 100% 30.16 in 3.0 mi Calm Calm - N/A   Overcast
10:55 PM 44.8 °F 42.4 °F 44.6 °F 99% 30.19 in 3.0 mi NW 4.6 mph - N/A   Mostly Cloudy
11:26 PM 44.6 °F - 42.8 °F 93% 30.17 in 1.5 mi North 2.3 mph - N/A   Mostly Cloudy
11:46 PM 42.8 °F 41.1 °F 42.8 °F 100% 30.17 in 0.5 mi NNW 3.5 mph - N/A Fog Fog
11:55 PM 43.5 °F - 43.3 °F 99% 30.18 in 0.5 mi Calm Calm - N/A Fog Fog